Vorticity
5 6 4 8 7 7 11 8 6 8 6 9 8 7 6 6 2 1 0 2 3 3 5 8 9 6 6 8 6 6 2 6 6 11 15 11 8 5 4 7 13 3 5
6 6 5 8 9 5 6 7 5 2 5 11 8 10 6 2 1 0 0 2 4 4 8 9 7 6 5 6 6 7 7 8 6 6 5 9 12 11 8 3 -4 5 16
6 6 5 6 11 1 5 6 1 4 11 8 6 5 2 2 1 3 3 3 6 9 5 5 6 6 6 7 7 6 6 7 8 10 12 13 13 10 11 10 8 -0 16
6 5 5 8 11 0 6 -2 8 12 8 5 6 2 1 2 5 3 3 5 6 6 7 7 7 7 8 8 9 10 9 9 8 4 3 6 12 13 10 12 16 16 -9
7 5 3 10 8 2 8 9 10 9 7 5 2 1 2 3 4 3 3 4 7 8 6 6 7 8 9 10 9 9 9 8 8 8 7 10 8 10 13 17 16 12 16
7 5 9 7 4 5 5 10 8 5 6 5 2 2 3 4 3 3 3 7 7 8 7 7 7 7 7 7 6 5 5 7 6 8 11 9 7 9 8 12 20 23 21
7 6 6 9 12 12 8 6 7 8 6 3 2 2 4 5 4 3 6 6 7 6 7 6 7 9 8 8 8 9 9 7 8 7 8 9 10 17 19 16 10 12 23
6 4 4 6 12 11 11 13 8 6 5 2 2 3 5 4 2 5 6 7 5 6 7 10 11 12 10 6 7 6 5 5 9 11 10 8 9 7 5 5 6 4 7
5 4 3 4 7 11 10 9 6 5 3 3 3 4 9 4 3 3 5 4 7 9 8 10 10 8 8 9 9 9 9 10 9 8 8 8 7 9 9 10 9 4 3
3 8 6 4 6 9 10 7 5 5 5 4 5 4 4 4 4 7 8 8 8 8 11 11 10 8 9 8 9 8 8 9 10 11 13 12 11 10 8 5 5 10 10
6 4 3 5 7 8 8 9 6 5 4 3 3 5 5 5 6 6 8 10 8 10 11 12 9 8 7 8 10 10 10 9 9 9 8 6 5 5 4 3 5 4 6
5 3 2 1 3 8 8 7 5 4 3 2 3 4 5 4 5 6 8 6 7 9 8 10 9 9 8 11 9 10 9 9 9 8 8 9 9 9 9 9 10 12 10
3 3 4 4 7 7 9 8 5 4 4 5 4 5 6 5 6 8 5 6 6 8 9 10 7 9 8 8 5 6 5 8 8 10 10 8 8 8 9 9 9 9 8
7 8 4 4 5 8 8 8 8 6 3 5 3 5 4 6 9 6 7 7 7 8 11 8 8 8 6 6 7 10 15 15 14 14 16 16 18 17 15 14 11 10 10
7 5 3 4 7 8 8 7 7 -6 10 3 5 4 4 8 8 7 7 7 8 9 6 5 7 5 5 8 13 11 11 11 14 20 22 21 21 20 20 21 21 19 14
10 2 5 6 8 9 8 6 -9 19 10 6 4 5 4 10 8 8 9 10 10 8 8 8 5 5 8 13 10 9 12 19 17 12 14 16 14 13 16 19 19 20 18
30 7 6 10 9 8 6 1 19 8 -2 7 6 2 11 9 7 9 10 10 9 7 7 5 4 8 13 11 10 14 16 13 13 13 15 9 9 12 12 15 18 22 23
11 7 6 8 12 7 8 8 -4 7 6 2 5 2 13 7 7 10 10 8 7 7 6 4 6 13 12 12 13 15 13 13 14 14 10 9 11 11 10 12 17 13 17
11 7 1 7 10 16 11 7 5 20 -3 9 -8 26 7 7 9 10 9 7 6 6 3 4 14 13 10 11 14 12 11 14 14 10 8 11 13 17 10 15 15 20 22
-0 37 -16 28 -1 13 6 3 13 -3 13 0 22 9 6 7 11 10 7 7 7 4 4 13 13 11 8 13 13 10 13 12 14 10 6 8 17 12 12 15 19 15 19
-27 37 24 -1 5 2 9 22 10 7 -3 2 15 6 6 9 10 7 7 7 5 4 14 10 10 10 10 13 9 12 9 12 12 13 15 17 17 10 16 16 22 14 22
13 6 9 6 -0 26 16 6 -1 15 -3 28 4 5 7 10 7 7 6 5 6 14 9 11 10 9 13 11 11 9 9 10 8 18 19 28 27 22 15 12 16 12 11
8 7 34 14 13 10 9 -11 22 -11 31 6 5 6 8 8 6 6 7 7 13 9 11 10 9 10 14 10 11 8 10 9 16 20 19 26 20 14 11 10 10 9 9
13 24 25 13 6 16 9 19 -0 -13 15 5 6 8 8 6 6 7 7 11 10 9 9 9 10 12 13 14 9 9 9 13 20 20 15 15 12 13 13 12 10 12 15
23 23 -6 -14 14 10 16 3 -15 41 6 7 7 9 6 7 8 7 11 11 11 12 11 10 10 13 14 13 8 9 12 14 14 18 14 16 10 9 20 18 15 18 18
8 21 7 15 13 35 -7 1 29 11 6 7 9 7 5 8 6 10 9 9 11 12 12 12 9 12 14 10 8 11 12 14 11 13 12 14 13 16 14 11 15 20 16
Height
3179 3180 3180 3178 3177 3177 3177 3176 3176 3176 3176 3176 3175 3175 3174 3173 3172 3171 3169 3168 3166 3164 3162 3160 3157 3154 3150 3147 3144 3140 3137 3134 3132 3132 3130 3126 3124 3123 3122 3119 3119 3118 3117
3175 3175 3175 3175 3174 3173 3173 3174 3173 3174 3173 3174 3172 3172 3171 3170 3168 3167 3166 3164 3163 3160 3157 3154 3151 3148 3145 3141 3138 3134 3131 3127 3125 3124 3121 3118 3115 3114 3112 3110 3108 3108 3105
3171 3170 3169 3169 3170 3170 3170 3170 3172 3170 3171 3170 3170 3170 3169 3168 3166 3166 3164 3162 3159 3156 3153 3150 3147 3143 3139 3135 3130 3125 3122 3117 3116 3115 3112 3110 3106 3103 3100 3098 3097 3096 3095
3166 3165 3165 3165 3165 3165 3167 3167 3167 3167 3167 3167 3168 3167 3165 3165 3163 3162 3160 3158 3155 3151 3147 3143 3138 3134 3131 3127 3124 3119 3114 3110 3107 3105 3100 3098 3095 3091 3087 3084 3082 3080 3079
3162 3161 3161 3162 3161 3161 3163 3163 3163 3164 3164 3164 3163 3162 3161 3161 3160 3158 3155 3153 3149 3144 3140 3135 3130 3126 3122 3119 3116 3111 3107 3102 3097 3093 3090 3087 3083 3081 3079 3075 3074 3072 3071
3157 3157 3157 3157 3157 3158 3159 3159 3159 3159 3160 3161 3160 3159 3158 3157 3156 3153 3150 3147 3143 3138 3134 3129 3123 3118 3113 3108 3104 3100 3097 3094 3091 3087 3083 3078 3074 3070 3066 3063 3060 3059 3057
3152 3153 3154 3153 3153 3154 3154 3154 3154 3156 3157 3157 3157 3155 3154 3152 3150 3148 3144 3140 3137 3132 3128 3122 3117 3111 3107 3103 3098 3094 3090 3085 3079 3076 3072 3066 3062 3061 3057 3052 3048 3046 3045
3147 3148 3149 3149 3148 3149 3150 3150 3150 3151 3152 3152 3152 3150 3148 3147 3144 3141 3138 3134 3128 3124 3120 3115 3110 3105 3101 3096 3092 3086 3080 3076 3071 3066 3060 3056 3050 3047 3046 3043 3041 3038 3036
3142 3143 3143 3144 3144 3144 3144 3145 3145 3146 3146 3146 3146 3145 3141 3140 3138 3136 3132 3127 3122 3117 3112 3106 3101 3097 3092 3088 3082 3077 3071 3065 3062 3058 3053 3046 3041 3037 3032 3028 3027 3026 3026
3136 3137 3138 3139 3139 3139 3139 3140 3140 3140 3140 3139 3138 3136 3134 3132 3129 3130 3128 3122 3117 3112 3107 3101 3095 3090 3084 3078 3073 3067 3063 3058 3052 3047 3043 3038 3034 3030 3026 3022 3018 3015 3013
3128 3130 3133 3133 3134 3133 3133 3133 3134 3134 3133 3132 3130 3128 3126 3122 3118 3114 3113 3116 3114 3105 3100 3094 3089 3083 3077 3071 3066 3061 3055 3049 3044 3037 3032 3026 3022 3019 3016 3011 3008 3005 3003
3121 3123 3125 3126 3127 3127 3127 3127 3127 3127 3127 3125 3123 3120 3117 3114 3110 3104 3100 3096 3093 3094 3091 3086 3080 3073 3068 3063 3056 3050 3045 3039 3032 3026 3020 3013 3008 3004 3000 2997 2994 2991 2989
3113 3115 3117 3119 3120 3120 3120 3121 3120 3120 3119 3118 3116 3114 3110 3107 3104 3099 3094 3089 3086 3084 3082 3079 3072 3065 3060 3053 3046 3039 3034 3028 3020 3013 3006 3000 2994 2990 2986 2982 2980 2977 2975
3105 3107 3109 3110 3111 3112 3112 3112 3112 3112 3112 3111 3109 3106 3102 3099 3096 3091 3086 3080 3076 3073 3070 3066 3065 3058 3051 3043 3037 3029 3022 3016 3008 3001 2994 2986 2980 2976 2972 2969 2965 2962 2960
3096 3098 3100 3102 3103 3104 3104 3104 3104 3104 3103 3102 3100 3097 3095 3092 3088 3083 3077 3071 3066 3059 3056 3057 3051 3045 3037 3029 3021 3013 3006 3000 2993 2987 2980 2973 2967 2961 2958 2953 2949 2946 2944
3086 3088 3090 3092 3095 3096 3096 3095 3095 3094 3095 3093 3091 3089 3087 3084 3080 3075 3071 3066 3061 3055 3047 3046 3041 3033 3025 3018 3009 3002 2995 2988 2983 2976 2969 2962 2957 2951 2947 2942 2936 2932 2930
3075 3078 3081 3084 3085 3086 3086 3085 3084 3084 3084 3085 3082 3080 3078 3075 3071 3067 3064 3061 3056 3049 3043 3040 3034 3026 3017 3009 3003 2995 2987 2981 2974 2966 2959 2952 2946 2941 2935 2929 2924 2920 2916
3066 3069 3071 3074 3076 3076 3076 3074 3073 3072 3073 3075 3073 3072 3069 3067 3063 3061 3058 3054 3049 3043 3036 3030 3024 3017 3009 3001 2994 2985 2979 2973 2965 2959 2951 2945 2938 2931 2924 2918 2913 2908 2904
3056 3058 3059 3062 3064 3064 3062 3062 3060 3061 3066 3063 3064 3062 3061 3058 3056 3054 3051 3046 3041 3037 3031 3023 3016 3009 3001 2993 2987 2979 2972 2965 2957 2950 2943 2938 2929 2922 2915 2908 2902 2897 2893
3046 3047 3041 3047 3046 3049 3050 3051 3048 3054 3055 3054 3055 3054 3053 3051 3050 3048 3044 3039 3035 3029 3022 3016 3008 3001 2994 2986 2978 2971 2965 2957 2949 2942 2934 2929 2920 2913 2907 2900 2894 2889 2885
3035 3036 3029 3032 3032 3036 3040 3041 3041 3044 3045 3046 3046 3047 3046 3045 3044 3041 3037 3033 3028 3021 3014 3007 3000 2993 2987 2980 2971 2963 2955 2948 2941 2935 2923 2918 2910 2905 2899 2894 2888 2883 2879
3027 3027 3024 3022 3023 3024 3027 3032 3034 3036 3038 3038 3040 3041 3040 3038 3037 3034 3031 3027 3020 3013 3007 2999 2993 2986 2980 2971 2964 2956 2948 2938 2930 2925 2910 2907 2899 2897 2893 2888 2883 2880 2877
3016 3015 3014 3015 3015 3016 3022 3027 3027 3026 3031 3031 3033 3035 3034 3032 3031 3028 3026 3020 3013 3007 3000 2993 2988 2981 2974 2965 2956 2950 2943 2934 2926 2917 2906 2901 2896 2893 2889 2883 2879 2876 2873
3005 3005 3004 3000 3004 3006 3014 3019 3019 3021 3021 3026 3029 3030 3028 3027 3025 3023 3019 3014 3009 3003 2996 2991 2984 2978 2970 2962 2954 2945 2937 2928 2923 2915 2904 2898 2893 2890 2886 2880 2875 2871 2867
2995 2995 2994 2998 2997 3000 3008 3008 3014 3013 3016 3021 3024 3024 3022 3021 3020 3018 3013 3009 3004 2998 2993 2987 2980 2972 2966 2958 2950 2943 2935 2926 2917 2912 2903 2897 2891 2886 2883 2877 2872 2867 2862
2988 2987 2984 2987 2991 2997 3002 3001 3006 3006 3010 3016 3018 3018 3016 3016 3014 3011 3007 3004 2999 2994 2989 2984 2975 2968 2960 2953 2947 2939 2929 2921 2915 2907 2902 2896 2890 2882 2877 2873 2869 2863 2860